Temp_Advection
nan nan nan nan nan nan nan nan nan nan nan nan nan nan nan nan nan nan nan nan nan nan nan nan nan nan nan nan nan nan nan nan nan nan nan nan nan nan nan nan nan nan nan
nan 0 0 1 1 1 1 1 0 0 0 0 0 0 0 -0 -0 -0 0 0 -0 -0 -0 0 0 0 0 0 -0 -0 -0 -0 -0 -1 -0 -0 0 -0 -0 -0 0 0 nan
nan 0 1 1 1 1 1 1 0 0 0 0 0 0 0 0 0 -0 0 0 0 -0 -0 0 0 0 0 0 0 -0 -0 -0 -0 -0 -0 -0 -0 -0 -0 -0 -0 -0 nan
nan 1 0 0 1 1 1 0 0 0 0 0 0 0 0 0 -0 -0 0 0 0 -0 0 0 0 0 0 0 0 0 -0 -0 0 0 0 -0 -0 -0 -0 -0 0 -0 nan
nan 0 0 0 1 1 1 0 0 -0 -0 0 0 0 0 0 -0 0 0 -0 -0 0 -0 0 0 0 0 0 0 0 0 0 0 0 0 0 0 0 -0 -1 -0 0 nan
nan 0 0 1 1 1 0 0 -0 -0 -0 0 0 0 0 0 0 0 0 0 -0 -0 -0 0 0 0 0 0 0 0 0 0 0 0 0 0 0 0 0 -0 -1 -0 nan
nan -0 -0 0 0 0 0 0 -0 0 0 0 0 0 0 0 0 0 0 0 0 0 -0 -0 -0 -0 -0 -0 0 0 0 0 0 0 0 0 0 0 0 0 -0 -0 nan
nan -0 0 0 0 0 0 0 0 0 0 0 0 0 0 0 0 0 0 0 0 0 0 0 0 -0 -0 -0 -0 0 0 0 0 0 0 0 0 0 0 0 0 -0 nan
nan -0 0 0 0 0 0 0 0 0 -0 -0 -0 0 0 0 0 0 0 0 0 0 0 0 0 0 -0 -0 -0 -0 -0 0 0 0 0 0 0 0 0 0 1 0 nan
nan 0 0 0 0 0 -0 0 0 0 0 0 -0 -0 -0 -0 -0 -0 0 0 0 0 0 0 0 0 0 -0 -0 -0 0 -0 -0 -0 -0 0 0 0 0 0 0 1 nan
nan -0 0 0 0 0 0 0 0 0 0 0 0 0 0 -0 -0 -0 -0 0 -0 -0 -0 -0 0 0 0 -0 -0 -0 -0 -0 -0 -0 -0 -0 -0 -0 0 0 0 1 nan
nan 0 0 0 0 0 0 -0 -0 -0 0 0 0 0 0 0 0 -0 -0 -0 -0 -0 -0 -0 -0 0 -0 -0 -0 -0 0 -0 -0 -0 -0 -0 -0 -0 -0 -0 0 0 nan
nan 0 0 0 0 0 0 0 -0 -0 -0 -0 -0 0 0 0 0 0 0 0 -0 -0 -0 0 -0 -0 -0 -0 0 -0 -0 -0 -0 -0 -0 -0 -0 -0 -0 -0 -0 -0 nan
nan 0 0 0 0 0 0 0 -0 -0 -0 -0 -0 -0 -0 -0 -0 -0 -0 -0 -0 -0 -0 -0 -0 -0 -0 -0 -0 -0 -0 -0 -0 -0 -0 -0 -0 -0 -0 -0 -0 -0 nan
nan 0 0 0 0 0 0 0 -0 -0 -0 -0 -0 -0 -0 -0 -0 -0 -0 -0 -0 -0 -0 -0 -0 -0 -0 -0 -0 -0 0 -0 -0 -0 -0 -0 -0 -0 -0 -0 -0 0 nan
nan 0 0 0 0 0 0 -0 -0 -0 -0 -0 -0 -0 -0 -0 -0 -0 -0 -0 -0 -0 -0 -0 -0 -0 -0 -0 -0 -0 -0 -0 -0 -0 -0 -0 -0 -0 -0 -0 0 0 nan
nan 0 0 0 0 0 0 0 -0 -0 -0 -0 -0 -0 -0 -0 -0 -0 -0 -0 -1 -1 -1 -1 -1 -1 -0 -0 -0 -0 -0 -0 -0 -0 -0 -0 0 0 -1 -0 -1 -0 nan
nan 0 0 0 0 0 0 -0 -0 -0 -0 -0 -0 -0 -0 -0 -0 -0 -0 -0 -1 -1 -1 -1 -1 -1 -1 -1 -0 -0 -0 -0 -0 -0 -0 -1 -1 0 -0 1 0 -1 nan
nan 0 0 0 0 0 -0 -0 -0 -0 -0 -0 -0 -0 -0 -0 -0 -0 -0 -0 -0 -0 -0 -0 -0 -0 -1 -1 -0 -0 -0 -0 -0 -0 0 -0 -1 -1 -0 -0 0 -0 nan
nan 0 0 0 0 0 -0 -0 -0 -0 -0 -0 -0 -0 -0 -0 -0 -1 -1 -1 -1 -1 -1 -1 -1 -0 -0 -0 -0 -0 -0 -0 -1 -1 -0 0 0 -0 -0 -0 -0 -0 nan
nan 0 0 0 0 0 -0 -0 -0 -0 -0 -0 -1 -1 -1 -1 -1 -0 -1 -1 -1 -1 -1 -1 -1 -1 -1 -1 -0 -0 -0 0 0 -0 -0 -0 -0 -0 -0 0 -0 -0 nan
nan 0 0 0 -0 -0 -0 -0 -0 -0 -0 -1 -1 -1 -1 -1 -1 -1 -0 -0 -0 -1 -1 -0 -0 -0 -0 -0 -0 -0 -0 -0 0 0 -1 -0 -0 -0 -0 -0 -0 -0 nan
nan 0 0 0 -0 -0 -0 -0 -0 -0 -0 -0 -1 -1 -1 -1 -0 -0 -0 -0 -0 -0 -0 -1 -1 -0 -0 -0 -1 -0 -0 -0 -0 0 0 -0 -0 -0 -0 -0 -0 -0 nan
nan 0 -0 -0 0 -0 -0 -0 -0 -0 -0 -0 -0 -0 -1 -1 -0 -0 -0 -0 -0 -0 -0 -0 -0 -0 -0 -1 -1 -1 -1 -0 -0 -0 -0 0 -0 -0 -0 -0 -1 -0 nan
nan -0 -0 -0 -0 0 0 -0 -0 -0 -0 -1 -0 -0 -1 -1 -1 -0 -0 -0 -0 -0 -0 -0 -0 -0 -0 -0 -0 -0 -0 -0 -0 -0 -0 -0 -0 -0 -0 -0 -0 -0 nan
nan nan nan nan nan nan nan nan nan nan nan nan nan nan nan nan nan nan nan nan nan nan nan nan nan nan nan nan nan nan nan nan nan nan nan nan nan nan nan nan nan nan nan
Wind_Speed
13 16 19 20 19 20 20 19 18 15 13 10 9 8 6 6 5 5 5 7 8 8 9 10 10 10 10 10 10 10 11 10 11 11 7 5 9 10 10 10 6 8 9
18 16 17 20 18 18 20 19 17 14 12 11 10 8 8 8 7 5 5 6 7 9 9 9 10 9 8 8 9 10 9 9 11 12 6 5 4 4 12 14 11 10 10
10 10 15 15 17 16 19 19 17 14 12 12 9 10 9 8 8 6 5 5 7 8 9 9 8 9 8 8 8 9 9 8 7 11 8 5 3 12 6 11 14 16 15
6 11 10 13 18 16 16 17 16 15 13 11 10 11 10 8 8 6 5 7 8 8 9 9 9 8 8 8 8 9 8 7 7 6 7 5 7 5 6 5 10 17 19
6 6 8 13 14 14 15 15 16 15 12 10 10 11 11 10 10 8 7 7 8 8 8 9 9 9 9 9 9 9 8 8 7 7 7 6 5 4 6 10 11 10 13
3 2 5 11 13 14 15 15 17 14 12 10 10 12 11 11 10 9 8 8 9 10 9 9 9 9 10 10 10 10 9 8 9 8 7 7 6 6 8 13 15 15 10
8 7 5 12 12 14 13 14 14 13 12 11 11 11 12 12 11 10 10 9 11 11 11 10 10 10 10 10 11 11 11 10 10 10 9 9 9 9 10 13 15 16 18
10 9 9 8 6 6 8 9 10 11 11 12 11 11 12 12 12 12 12 12 12 12 13 12 12 11 11 11 11 12 12 12 11 11 11 11 11 12 12 13 14 20 17
12 13 11 13 10 7 3 4 7 8 10 12 12 13 13 13 13 13 14 13 14 14 14 13 13 13 13 12 12 13 13 14 14 13 13 13 13 14 14 14 14 14 13
13 11 11 10 9 8 9 10 11 11 11 10 13 13 14 14 14 14 14 14 14 15 15 15 15 15 15 15 15 15 15 16 15 16 16 15 15 16 16 17 17 17 17
12 12 11 10 9 6 3 2 4 7 11 13 13 13 13 14 15 14 14 14 15 16 16 16 17 17 17 18 19 19 19 20 20 19 20 21 19 19 20 20 20 21 20
13 11 10 9 9 7 4 3 2 0 2 6 11 12 11 11 11 12 12 13 14 16 17 17 18 19 19 19 21 21 22 22 23 23 23 23 24 24 23 23 23 24 25
12 10 10 9 9 8 7 7 7 7 6 4 1 3 6 8 10 11 12 13 16 17 17 17 18 19 19 20 22 23 24 24 24 24 25 26 26 27 27 27 27 26 26
12 10 9 9 9 8 8 8 9 9 10 10 9 9 8 7 5 4 5 8 10 12 14 15 17 18 20 21 22 23 24 26 26 26 26 27 28 29 28 28 29 29 30
13 11 10 9 8 8 7 7 7 7 8 8 8 9 9 9 8 8 9 9 10 11 12 13 14 15 16 17 20 22 23 24 26 26 27 27 28 28 29 28 29 29 31
13 11 10 8 8 7 6 6 7 8 8 8 9 10 10 11 12 12 12 13 13 14 15 16 17 18 18 19 21 24 27 28 29 31 33 35 35 33 33 33 32 33 30
14 11 9 8 8 7 6 7 7 8 8 9 10 11 12 13 14 15 16 17 18 19 20 21 21 22 21 22 22 23 24 25 26 26 26 27 27 28 29 32 35 36 37
14 12 10 9 7 7 6 6 6 7 8 10 11 13 15 17 19 20 22 23 24 25 25 25 25 26 25 25 25 26 27 28 27 26 26 27 27 23 25 29 28 31 30
16 15 11 9 7 6 6 5 4 5 7 10 13 15 18 21 23 25 26 26 26 27 27 27 27 28 29 27 27 26 27 28 28 27 26 26 27 25 24 21 23 26 29
14 13 11 9 6 5 4 3 4 7 10 14 16 19 21 23 25 26 27 27 26 27 27 29 29 30 31 29 27 27 28 30 31 31 29 27 26 27 24 23 24 27 27
13 11 9 7 4 1 2 5 8 11 13 16 20 22 24 25 26 26 26 27 28 29 30 30 31 30 29 28 27 26 26 27 30 32 30 28 26 26 26 27 27 30 30
12 9 7 3 1 4 6 9 12 15 17 19 21 23 24 25 25 26 27 26 26 28 29 29 30 30 28 26 27 28 24 24 25 28 27 26 26 26 28 30 32 33 31
8 5 3 1 3 7 11 14 15 17 19 21 22 23 25 25 26 27 29 30 28 28 30 28 27 29 31 31 26 24 24 22 22 22 24 28 28 27 27 28 30 29 29
5 2 2 4 7 10 12 15 18 20 23 25 26 27 27 28 28 28 28 29 29 26 27 30 33 35 36 35 32 26 23 24 27 30 31 29 30 32 33 32 30 28 27
2 4 6 9 12 14 16 18 20 22 24 26 27 28 28 28 28 29 26 25 25 23 25 28 30 33 36 35 30 27 29 29 29 28 30 32 33 33 32 30 28 26 27
5 8 10 13 17 20 22 23 23 23 24 25 26 27 27 27 26 29 30 25 24 25 25 27 27 29 30 30 30 29 28 29 28 30 32 33 33 33 31 29 27 24 24
Wind_Direction
209 204 206 222 227 219 218 225 226 224 222 217 222 229 229 232 252 265 297 313 329 333 334 334 335 333 339 336 343 350 352 349 354 348 344 302 316 353 353 338 321 329 338
176 173 199 222 236 224 216 221 222 221 216 216 219 217 221 238 260 276 294 314 325 331 333 336 334 330 336 327 339 346 357 355 354 -0 358 7 290 335 323 344 353 336 332
136 187 198 221 237 229 220 217 218 219 214 220 225 224 229 242 248 260 282 312 325 331 331 332 333 327 334 330 335 342 347 355 359 353 8 347 335 336 344 339 351 353 347
185 185 188 211 229 236 229 217 214 215 216 223 229 228 229 237 248 270 296 310 317 324 330 329 330 327 327 326 329 334 340 337 343 355 336 348 330 336 326 344 344 351 336
170 185 217 194 215 222 222 213 207 212 218 226 234 232 233 236 251 262 278 293 309 316 320 322 325 324 323 320 322 322 328 327 323 323 323 322 325 355 313 316 307 311 315
91 173 175 171 186 201 217 211 205 209 219 230 236 238 240 247 254 264 275 289 301 307 313 318 322 323 320 320 320 320 318 317 316 314 311 314 310 283 286 294 308 315 322
90 70 96 144 180 199 216 202 204 211 224 235 242 245 248 256 263 266 271 279 290 296 303 310 314 316 320 324 322 318 314 311 308 306 304 298 297 294 294 294 305 306 318
99 97 105 130 173 192 195 198 210 225 237 248 255 262 260 263 268 268 269 274 281 289 297 302 304 308 310 314 316 318 314 308 306 303 301 300 300 297 297 298 301 310 313
106 102 120 125 137 151 170 224 235 246 257 265 266 265 266 267 268 269 270 272 275 280 286 290 292 296 298 302 306 310 310 306 305 303 302 300 301 297 296 295 291 289 297
104 105 108 118 135 158 185 205 221 228 235 257 271 270 270 271 270 271 273 273 274 277 281 283 285 287 289 293 296 298 299 298 300 301 300 298 298 296 293 293 290 283 273
117 110 105 105 105 111 133 192 236 243 241 237 244 262 265 272 275 277 275 272 273 276 278 280 281 282 284 287 291 293 294 294 295 295 296 297 295 293 291 289 288 286 280
127 121 110 104 101 95 87 75 70 351 256 238 235 234 238 248 265 278 285 283 275 271 274 276 277 281 282 284 285 287 288 289 290 292 291 291 292 291 290 288 286 285 284
128 123 119 110 107 101 93 85 77 68 61 54 45 245 245 254 259 263 261 263 273 278 278 278 280 283 284 284 283 283 283 283 282 282 284 286 285 285 287 287 287 286 282
137 136 126 120 114 106 98 89 82 73 67 63 60 58 51 42 26 350 312 300 296 292 289 288 287 288 289 288 287 286 284 283 282 282 281 282 282 284 285 284 283 282 282
143 142 135 130 122 111 99 87 76 66 57 48 41 38 31 21 12 2 354 347 338 331 325 319 314 310 308 301 296 293 291 289 289 289 289 288 287 286 286 285 282 279 276
148 150 144 135 120 110 97 84 71 59 48 43 39 33 23 16 10 4 358 350 344 339 334 329 325 320 316 311 305 299 295 292 290 289 288 285 285 283 282 279 276 275 272
161 151 148 135 123 113 98 80 67 58 48 39 31 22 14 6 359 351 344 339 335 331 327 324 320 316 314 311 308 305 303 303 303 302 299 295 290 285 282 280 280 278 279
159 155 147 134 122 110 101 86 63 45 33 23 12 3 357 351 345 339 335 331 328 325 323 319 316 313 311 309 307 305 302 300 301 305 306 305 305 305 299 290 285 286 288
153 155 158 141 128 111 93 81 52 30 1 355 350 346 342 337 333 329 326 323 320 318 317 316 315 313 312 311 308 306 303 301 300 299 296 295 300 302 305 303 296 294 290
161 151 142 136 132 113 85 51 8 352 338 335 334 335 333 331 329 326 324 321 318 314 313 310 309 308 307 307 305 303 301 300 300 300 297 294 295 299 301 296 295 293 297
150 142 138 141 131 92 356 342 336 333 326 325 327 328 327 324 322 319 316 313 312 311 309 306 306 303 302 299 298 295 292 290 292 295 294 291 287 288 284 282 283 285 291
142 142 143 147 332 325 325 326 324 322 317 317 318 319 319 317 314 312 310 308 304 301 303 303 301 301 300 297 295 295 293 290 289 291 297 299 299 293 285 283 285 286 287
138 140 157 297 329 316 315 315 316 313 310 310 313 313 313 313 313 310 310 311 311 308 308 307 304 301 298 301 302 297 294 293 290 289 290 296 297 295 294 292 295 293 288
157 196 279 301 305 309 310 310 311 311 311 311 311 311 312 313 311 309 306 303 304 304 300 300 300 302 302 303 300 298 295 287 285 288 294 295 294 292 292 295 296 296 296
249 302 310 311 312 312 311 310 309 308 308 308 309 309 309 310 306 304 306 304 303 304 305 303 303 303 302 303 305 296 292 293 294 296 295 294 296 298 300 302 302 298 298
310 310 312 309 309 310 310 311 310 308 305 303 305 306 306 308 306 306 307 305 302 303 303 303 300 299 297 298 298 298 296 295 295 295 292 292 295 296 298 300 302 302 301
Height
1495 1498 1500 1502 1504 1507 1509 1511 1514 1516 1518 1521 1523 1524 1526 1527 1527 1528 1528 1528 1528 1528 1526 1525 1524 1523 1521 1521 1519 1518 1516 1515 1515 1512 1511 1510 1510 1509 1509 1508 1507 1506 1505
1492 1495 1497 1499 1501 1504 1506 1508 1511 1513 1516 1518 1520 1522 1523 1525 1525 1526 1526 1527 1527 1526 1525 1524 1523 1522 1521 1520 1519 1517 1516 1516 1514 1513 1511 1510 1511 1509 1508 1508 1506 1505 1504
1491 1494 1496 1497 1498 1500 1503 1506 1509 1512 1514 1516 1519 1520 1522 1523 1524 1524 1525 1526 1526 1525 1524 1523 1522 1521 1520 1519 1518 1517 1515 1515 1514 1514 1514 1512 1511 1509 1508 1507 1506 1505 1503
1489 1491 1494 1496 1496 1498 1501 1504 1507 1510 1512 1514 1517 1518 1520 1521 1522 1522 1523 1524 1524 1523 1523 1523 1521 1519 1518 1518 1517 1516 1515 1514 1514 1514 1513 1513 1512 1510 1508 1507 1505 1504 1502
1488 1489 1490 1493 1496 1497 1499 1502 1505 1508 1510 1513 1515 1516 1518 1519 1520 1520 1521 1522 1522 1522 1521 1521 1520 1519 1518 1516 1515 1515 1514 1514 1513 1512 1512 1511 1510 1510 1509 1505 1504 1503 1501
1487 1488 1489 1491 1494 1496 1498 1501 1503 1506 1509 1512 1513 1515 1516 1517 1518 1518 1519 1519 1520 1520 1519 1519 1518 1517 1517 1515 1514 1513 1513 1513 1512 1511 1511 1510 1509 1508 1507 1505 1502 1501 1499
1488 1488 1489 1491 1493 1495 1497 1500 1503 1505 1508 1510 1511 1512 1514 1515 1516 1516 1516 1517 1517 1518 1517 1517 1516 1515 1514 1513 1513 1512 1512 1511 1510 1510 1509 1508 1507 1506 1505 1504 1502 1499 1497
1488 1489 1490 1492 1494 1496 1498 1500 1502 1504 1506 1507 1509 1510 1511 1512 1513 1514 1514 1514 1514 1514 1515 1515 1514 1514 1513 1512 1511 1510 1510 1509 1509 1508 1507 1506 1505 1504 1503 1502 1500 1497 1496
1489 1490 1491 1492 1494 1496 1498 1499 1501 1503 1504 1505 1506 1507 1508 1509 1509 1510 1511 1511 1511 1511 1511 1512 1512 1511 1510 1509 1508 1507 1507 1507 1506 1505 1504 1503 1502 1501 1500 1499 1498 1497 1494
1488 1489 1490 1491 1492 1494 1495 1496 1498 1500 1502 1503 1504 1504 1504 1505 1506 1506 1507 1508 1508 1507 1507 1508 1508 1508 1507 1506 1505 1504 1504 1504 1504 1502 1501 1500 1499 1498 1497 1496 1495 1494 1493
1488 1490 1491 1491 1491 1492 1493 1494 1496 1497 1498 1499 1500 1501 1502 1502 1502 1502 1503 1504 1504 1504 1503 1503 1504 1503 1503 1503 1501 1501 1501 1500 1500 1499 1498 1496 1495 1494 1493 1492 1491 1489 1489
1488 1489 1490 1490 1491 1491 1492 1493 1494 1494 1495 1495 1496 1497 1497 1498 1499 1499 1500 1500 1500 1500 1499 1499 1499 1499 1499 1498 1497 1497 1497 1496 1495 1495 1493 1492 1490 1489 1488 1487 1486 1484 1483
1487 1488 1489 1489 1490 1491 1492 1493 1493 1493 1493 1493 1494 1494 1495 1495 1495 1495 1496 1496 1496 1496 1495 1495 1495 1495 1494 1493 1492 1492 1491 1491 1490 1489 1487 1486 1485 1483 1483 1481 1480 1479 1478
1486 1488 1489 1490 1490 1491 1492 1493 1493 1494 1494 1494 1494 1494 1493 1493 1493 1493 1494 1493 1493 1492 1492 1491 1491 1490 1489 1488 1487 1486 1485 1484 1483 1482 1481 1480 1478 1477 1476 1475 1474 1472 1471
1486 1488 1489 1490 1490 1491 1492 1493 1493 1494 1494 1494 1494 1494 1494 1494 1493 1493 1492 1492 1491 1490 1489 1488 1487 1485 1485 1483 1481 1480 1479 1478 1476 1475 1474 1473 1472 1470 1469 1467 1466 1466 1464
1484 1487 1488 1488 1489 1490 1491 1492 1494 1494 1494 1494 1494 1494 1494 1494 1493 1492 1491 1490 1489 1488 1487 1485 1483 1482 1481 1479 1478 1476 1473 1472 1470 1468 1466 1465 1464 1462 1460 1460 1458 1458 1456
1483 1485 1486 1487 1489 1490 1491 1493 1493 1494 1494 1494 1494 1494 1494 1493 1492 1491 1490 1488 1487 1485 1483 1481 1479 1477 1476 1474 1472 1470 1467 1465 1463 1461 1458 1456 1455 1453 1452 1449 1448 1448 1446
1481 1484 1485 1486 1488 1490 1491 1492 1493 1493 1494 1494 1494 1493 1492 1491 1489 1488 1486 1484 1482 1480 1478 1476 1474 1471 1470 1468 1466 1464 1461 1458 1456 1454 1452 1450 1448 1447 1444 1441 1438 1437 1437
1479 1481 1483 1485 1488 1490 1491 1492 1493 1493 1493 1492 1491 1490 1489 1487 1485 1483 1481 1479 1476 1474 1472 1470 1467 1465 1463 1462 1460 1458 1455 1451 1449 1448 1446 1444 1442 1440 1438 1434 1432 1430 1429
1479 1481 1484 1486 1487 1489 1490 1491 1491 1491 1490 1489 1488 1487 1485 1483 1481 1478 1476 1474 1472 1469 1467 1464 1463 1460 1457 1455 1453 1452 1449 1445 1442 1440 1438 1437 1435 1434 1432 1430 1428 1424 1422
1479 1482 1484 1486 1487 1488 1488 1488 1488 1487 1486 1485 1484 1482 1481 1479 1477 1474 1472 1469 1466 1463 1461 1458 1455 1453 1451 1448 1447 1445 1443 1439 1436 1433 1430 1429 1428 1427 1426 1424 1421 1418 1417
1479 1481 1483 1484 1485 1486 1485 1485 1484 1484 1482 1481 1480 1478 1476 1474 1471 1468 1466 1463 1461 1458 1454 1451 1448 1446 1444 1443 1441 1438 1436 1434 1431 1428 1425 1422 1421 1419 1417 1416 1414 1412 1410
1478 1479 1481 1482 1482 1483 1482 1482 1481 1480 1478 1476 1474 1472 1470 1468 1466 1462 1459 1456 1454 1451 1448 1445 1442 1439 1437 1434 1433 1431 1429 1427 1425 1423 1420 1417 1415 1412 1410 1408 1406 1404 1402
1477 1478 1479 1479 1480 1480 1479 1478 1477 1475 1473 1470 1468 1466 1463 1461 1459 1456 1454 1451 1449 1446 1444 1440 1437 1433 1429 1427 1425 1424 1422 1420 1418 1415 1412 1410 1407 1405 1403 1400 1398 1396 1394
1475 1476 1476 1476 1476 1476 1475 1474 1472 1470 1467 1465 1462 1460 1457 1455 1452 1450 1448 1445 1443 1442 1438 1435 1431 1427 1422 1420 1419 1417 1415 1413 1410 1408 1404 1401 1399 1396 1393 1391 1390 1389 1387
1473 1473 1473 1472 1471 1470 1469 1468 1466 1464 1462 1459 1457 1455 1452 1449 1447 1443 1439 1440 1438 1435 1433 1430 1426 1422 1418 1415 1412 1410 1407 1405 1403 1400 1396 1393 1392 1389 1387 1385 1383 1381 1380